Location: Malvern Link
(52.1333°N, 2.3000°W)
Time: 15:28:29
(UTC+00:00)

SO-50 - Pass Details

Date: 05 July 2022
Orbit: 585 x 698 km, 64.6° (Epoch: 11 August)

Event Time Altitude Azimuth Distance (km) Brightness Sun altitude
Rises 01:55:51 0° 263° (W) 3,002 ? -11.8°
Reaches altitude 10° 01:58:26 10° 276° (W) 2,110 ? -11.7°
Maximum altitude 02:02:35 28° 335° (NNW) 1,276 ? -11.4°
Drops below altitude 10° 02:06:51 10° 35° (NE) 2,159 ? -11.1°
Sets 02:09:31 0° 47° (NE) 3,085 ? -10.9°
